Volver al catálogo

STARLINK-6270

ActivoComunicacionesVLEO
NORAD 56421·PAYLOAD·🇺🇸 United States

Lanzado May 4, 2023 desde Cape Canaveral Space Force Station

Loading…

Próximos Pases (próximas 24 horas)

TLE

ActualizadoSource: CelesTrak SupGP

Época: Sep 14, 2026, 21:26 UTC

1 56421C 23061AZ  26257.89354167 -.00008157  00000+0 -29548-3 0  2575
2 56421  43.0033 194.6101 0001643 264.3247 111.5141 15.27578343    17

Sigue STARLINK-6270 en tiempo real con AllMySat

Download on the App Store